| time (UTC) | temp F | wind direction | speed MPH | gust MPH | rain 1hr in | rain 24hr in | rain mn in | humidity % | barometer mb |
| 20260902165141 | 72 | 171 | 1.0 | 6.0 | 0.00 | 0.00 | 0.00 | 77 | 1013.9 |
| 20260902164141 | 71 | 274 | 1.0 | 4.0 | 0.00 | 0.00 | 0.00 | 79 | 1014.0 |
| 20260902163111 | 71 | 273 | 2.0 | 3.0 | 0.00 | 0.00 | 0.00 | 80 | 1013.9 |
| 20260902162141 | 71 | 272 | 1.0 | 5.0 | 0.00 | 0.00 | 0.00 | 80 | 1013.9 |
| 20260902161141 | 72 | 281 | 1.0 | 5.0 | 0.00 | 0.00 | 0.00 | 78 | 1013.8 |
| 20260902160141 | 72 | 211 | 1.0 | 4.0 | 0.00 | 0.00 | 0.00 | 78 | 1013.9 |
| 20260902155141 | 72 | 100 | 2.0 | 2.0 | 0.00 | 0.00 | 0.00 | 78 | 1013.9 |
| 20260902154141 | 72 | 221 | 0.0 | 3.0 | 0.00 | 0.00 | 0.00 | 79 | 1014.1 |
| 20260902153141 | 71 | 198 | 1.0 | 2.0 | 0.00 | 0.00 | 0.00 | 80 | 1013.8 |
| 20260902151141 | 70 | 126 | 0.0 | 3.0 | 0.00 | 0.00 | 0.00 | 79 | 1013.7 |
| 20260902150142 | 69 | 148 | 0.0 | 1.0 | 0.00 | 0.00 | 0.00 | 82 | 1013.8 |
| 20260902145140 | 69 | 182 | 0.0 | 2.0 | 0.00 | 0.00 | 0.00 | 82 | 1013.8 |
| 20260902144141 | 67 | 117 | 0.0 | 2.0 | 0.00 | 0.00 | 0.00 | 84 | 1013.9 |
| 20260902143141 | 66 | 108 | 0.0 | 2.0 | 0.00 | 0.00 | 0.00 | 86 | 1013.8 |
| 20260902142110 | 65 | 113 | 0.0 | 2.0 | 0.00 | 0.00 | 0.00 | 87 | 1013.6 |
| 20260902141140 | 64 | 86 | 0.0 | 2.0 | 0.00 | 0.00 | 0.00 | 88 | 1013.4 |
| 20260902140141 | 63 | 114 | 0.0 | 1.0 | 0.00 | 0.00 | 0.00 | 89 | 1013.3 |
| 20260902135140 | 63 | 92 | 1.0 | 2.0 | 0.00 | 0.00 | 0.00 | 89 | 1013.1 |
| 20260902134112 | 63 | 88 | 0.0 | 1.0 | 0.00 | 0.00 | 0.00 | 88 | 1013.1 |
| 20260902133141 | 64 | 69 | 0.0 | 1.0 | 0.00 | 0.00 | 0.00 | 88 | 1013.2 |
| 20260902132141 | 64 | 69 | 0.0 | 2.0 | 0.00 | 0.00 | 0.00 | 88 | 1013.1 |
| 20260902131141 | 64 | 76 | 1.0 | 2.0 | 0.00 | 0.00 | 0.00 | 88 | 1013.1 |
| 20260902125140 | 64 | 5 | 1.0 | 2.0 | 0.00 | 0.00 | 0.00 | 87 | 1013.1 |
| 20260902124140 | 64 | 34 | 0.0 | 2.0 | 0.00 | 0.00 | 0.00 | 87 | 1013.0 |
| 20260902123142 | 64 | 40 | 0.0 | 2.0 | 0.00 | 0.00 | 0.00 | 88 | 1013.0 |
| 20260902122140 | 64 | 14 | 0.0 | 2.0 | 0.00 | 0.00 | 0.00 | 88 | 1013.1 |
| 20260902121140 | 64 | 15 | 0.0 | 2.0 | 0.00 | 0.00 | 0.00 | 88 | 1013.0 |
| 20260902120141 | 64 | 21 | 0.0 | 2.0 | 0.00 | 0.00 | 0.00 | 88 | 1013.1 |
| 20260902115110 | 64 | 41 | 0.0 | 2.0 | 0.00 | 0.00 | 0.00 | 87 | 1013.1 |
| 20260902114140 | 65 | 41 | 0.0 | 0.0 | 0.00 | 0.00 | 0.00 | 86 | 1013.0 |
| 20260902113140 | 65 | 41 | 0.0 | 2.0 | 0.00 | 0.00 | 0.00 | 86 | 1013.0 |
| 20260902111140 | 65 | 81 | 0.0 | 2.0 | 0.00 | 0.00 | 0.00 | 86 | 1013.0 |
| 20260902110140 | 65 | 52 | 0.0 | 2.0 | 0.00 | 0.00 | 0.00 | 86 | 1013.2 |
| 20260902105140 | 65 | 113 | 0.0 | 2.0 | 0.00 | 0.00 | 0.00 | 86 | 1013.1 |
| 20260902103140 | 65 | 103 | 1.0 | 2.0 | 0.00 | 0.00 | 0.00 | 86 | 1013.1 |
| 20260902102140 | 66 | 139 | 1.0 | 2.0 | 0.00 | 0.00 | 0.00 | 86 | 1013.0 |
| 20260902101110 | 66 | 146 | 0.0 | 2.0 | 0.00 | 0.00 | 0.00 | 85 | 1013.1 |
| 20260902100141 | 66 | 145 | 0.0 | 2.0 | 0.00 | 0.00 | 0.00 | 85 | 1013.2 |
| 20260902095140 | 67 | 88 | 0.0 | 2.0 | 0.00 | 0.00 | 0.00 | 85 | 1013.5 |
| 20260902094140 | 67 | 127 | 0.0 | 2.0 | 0.00 | 0.00 | 0.00 | 85 | 1013.4 |
| 20260902093140 | 67 | 129 | 2.0 | 2.0 | 0.00 | 0.00 | 0.00 | 85 | 1013.4 |
| 20260902092140 | 67 | 136 | 0.0 | 2.0 | 0.00 | 0.00 | 0.00 | 84 | 1013.4 |
| 20260902091140 | 67 | 133 | 1.0 | 2.0 | 0.00 | 0.00 | 0.00 | 84 | 1013.3 |
| 20260902090140 | 67 | 213 | 0.0 | 2.0 | 0.00 | 0.00 | 0.00 | 84 | 1013.4 |
| 20260902085140 | 68 | 226 | 0.0 | 2.0 | 0.00 | 0.00 | 0.00 | 84 | 1013.4 |
| 20260902084140 | 68 | 281 | 0.0 | 3.0 | 0.00 | 0.00 | 0.00 | 84 | 1013.4 |
| 20260902082140 | 68 | 23 | 0.0 | 4.0 | 0.00 | 0.00 | 0.00 | 84 | 1013.6 |
| 20260902081140 | 68 | 9 | 0.0 | 2.0 | 0.00 | 0.00 | 0.00 | 84 | 1013.5 |
| 20260902080140 | 68 | 36 | 1.0 | 3.0 | 0.00 | 0.00 | 0.00 | 85 | 1013.3 |
| 20260902075110 | 68 | 348 | 0.0 | 3.0 | 0.00 | 0.00 | 0.00 | 84 | 1013.4 |
| 20260902073109 | 68 | 288 | 1.0 | 3.0 | 0.00 | 0.00 | 0.00 | 84 | 1013.3 |
| 20260902072140 | 69 | 195 | 1.0 | 3.0 | 0.00 | 0.00 | 0.00 | 84 | 1013.2 |
| 20260902070139 | 69 | 208 | 0.0 | 4.0 | 0.00 | 0.00 | 0.00 | 82 | 1013.1 |
| 20260902065140 | 68 | 240 | 1.0 | 3.0 | 0.00 | 0.00 | 0.00 | 82 | 1013.1 |
| 20260902064140 | 69 | 207 | 2.0 | 3.0 | 0.00 | 0.00 | 0.00 | 83 | 1012.7 |
| 20260902063140 | 69 | 242 | 1.0 | 3.0 | 0.00 | 0.00 | 0.00 | 82 | 1012.8 |
| 20260902062140 | 69 | 137 | 0.0 | 4.0 | 0.00 | 0.00 | 0.00 | 83 | 1012.8 |
| 20260902060140 | 69 | 275 | 3.0 | 3.0 | 0.00 | 0.00 | 0.00 | 83 | 1012.9 |
| 20260902055139 | 69 | 131 | 0.0 | 4.0 | 0.00 | 0.00 | 0.00 | 82 | 1012.8 |
| 20260902054139 | 69 | 291 | 3.0 | 6.0 | 0.00 | 0.00 | 0.00 | 82 | 1012.8 |
| 20260902053139 | 69 | 355 | 4.0 | 5.0 | 0.00 | 0.00 | 0.00 | 81 | 1012.9 |
| 20260902052109 | 69 | 270 | 1.0 | 4.0 | 0.00 | 0.00 | 0.00 | 80 | 1012.9 |
| 20260902051139 | 69 | 344 | 1.0 | 6.0 | 0.00 | 0.00 | 0.00 | 81 | 1012.9 |
| 20260902050140 | 69 | 279 | 6.0 | 6.0 | 0.00 | 0.00 | 0.00 | 80 | 1012.9 |
| 20260902045139 | 69 | 348 | 0.0 | 4.0 | 0.00 | 0.00 | 0.00 | 80 | 1012.8 |
| 20260902035139 | 69 | 355 | 1.0 | 3.0 | 0.00 | 0.00 | 0.00 | 78 | 1011.7 |
| 20260902033139 | 69 | 310 | 0.0 | 5.0 | 0.00 | 0.00 | 0.00 | 78 | 1011.5 |
| 20260902032140 | 69 | 333 | 2.0 | 4.0 | 0.00 | 0.00 | 0.00 | 78 | 1011.5 |
| 20260902031139 | 69 | 9 | 1.0 | 4.0 | 0.00 | 0.00 | 0.00 | 78 | 1011.6 |
| 20260902030139 | 70 | 285 | 3.0 | 6.0 | 0.00 | 0.00 | 0.00 | 79 | 1011.8 |
| 20260902025139 | 70 | 9 | 1.0 | 4.0 | 0.00 | 0.00 | 0.00 | 78 | 1011.8 |
| 20260902024109 | 70 | 271 | 0.0 | 9.0 | 0.00 | 0.00 | 0.00 | 79 | 1011.8 |
| 20260902023139 | 70 | 248 | 1.0 | 8.0 | 0.00 | 0.00 | 0.00 | 79 | 1011.6 |
| 20260902021139 | 71 | 335 | 1.0 | 6.0 | 0.00 | 0.00 | 0.00 | 80 | 1011.6 |
| 20260902020139 | 72 | 302 | 1.0 | 6.0 | 0.00 | 0.00 | 0.00 | 80 | 1011.7 |
| 20260902014109 | 73 | 294 | 1.0 | 7.0 | 0.00 | 0.00 | 0.00 | 77 | 1011.5 |
| 20260902013139 | 73 | 331 | 2.0 | 7.0 | 0.00 | 0.00 | 0.00 | 76 | 1011.5 |
| 20260902012139 | 73 | 20 | 2.0 | 8.0 | 0.00 | 0.00 | 0.00 | 75 | 1011.6 |
| 20260902011109 | 73 | 278 | 3.0 | 7.0 | 0.00 | 0.00 | 0.00 | 76 | 1011.7 |
| 20260902010139 | 74 | 275 | 3.0 | 8.0 | 0.00 | 0.00 | 0.00 | 75 | 1011.9 |
| 20260902005139 | 74 | 284 | 0.0 | 9.0 | 0.00 | 0.00 | 0.00 | 76 | 1011.8 |
| 20260902004139 | 74 | 333 | 1.0 | 9.0 | 0.00 | 0.00 | 0.00 | 75 | 1011.9 |
| 20260902003139 | 74 | 290 | 5.0 | 11.0 | 0.00 | 0.00 | 0.00 | 76 | 1012.0 |
| 20260902001140 | 75 | 195 | 1.0 | 12.0 | 0.00 | 0.00 | 0.00 | 75 | 1012.0 |
| 20260901235139 | 75 | 219 | 3.0 | 9.0 | 0.00 | 0.00 | 0.00 | 75 | 1011.9 |
| 20260901234139 | 75 | 291 | 1.0 | 10.0 | 0.00 | 0.00 | 0.00 | 74 | 1012.0 |
| 20260901233139 | 75 | 313 | 1.0 | 11.0 | 0.00 | 0.00 | 0.00 | 74 | 1012.2 |
| 20260901232140 | 75 | 277 | 1.0 | 10.0 | 0.00 | 0.00 | 0.00 | 74 | 1012.2 |
| 20260901231139 | 75 | 254 | 10.0 | 12.0 | 0.00 | 0.00 | 0.00 | 74 | 1012.2 |
| 20260901230139 | 75 | 216 | 4.0 | 11.0 | 0.00 | 0.00 | 0.00 | 73 | 1012.3 |
| 20260901225139 | 75 | 298 | 5.0 | 10.0 | 0.00 | 0.00 | 0.00 | 74 | 1012.4 |
| 20260901224138 | 76 | 261 | 4.0 | 9.0 | 0.00 | 0.00 | 0.00 | 73 | 1012.4 |
| 20260901223109 | 76 | 260 | 4.0 | 10.0 | 0.00 | 0.00 | 0.00 | 72 | 1012.5 |
| 20260901222138 | 76 | 298 | 4.0 | 11.0 | 0.00 | 0.00 | 0.00 | 71 | 1012.6 |
| 20260901221109 | 76 | 221 | 3.0 | 12.0 | 0.00 | 0.00 | 0.00 | 72 | 1012.8 |
| 20260901220138 | 76 | 297 | 8.0 | 10.0 | 0.00 | 0.00 | 0.00 | 71 | 1012.8 |
| 20260901215139 | 76 | 254 | 4.0 | 9.0 | 0.00 | 0.00 | 0.00 | 70 | 1012.9 |
| 20260901214138 | 76 | 279 | 6.0 | 10.0 | 0.00 | 0.00 | 0.00 | 73 | 1012.9 |
| 20260901213138 | 76 | 269 | 6.0 | 11.0 | 0.00 | 0.00 | 0.00 | 70 | 1012.9 |
| 20260901212138 | 75 | 315 | 3.0 | 10.0 | 0.00 | 0.00 | 0.00 | 72 | 1012.9 |
| 20260901211139 | 76 | 279 | 8.0 | 9.0 | 0.00 | 0.00 | 0.00 | 73 | 1012.9 |
| 20260901210138 | 76 | 220 | 5.0 | 11.0 | 0.00 | 0.00 | 0.00 | 71 | 1012.9 |
| 20260901205138 | 76 | 244 | 4.0 | 9.0 | 0.00 | 0.00 | 0.00 | 73 | 1013.0 |
| 20260901204138 | 76 | 277 | 8.0 | 9.0 | 0.00 | 0.00 | 0.00 | 71 | 1013.1 |
| 20260901203138 | 76 | 327 | 6.0 | 9.0 | 0.00 | 0.00 | 0.00 | 71 | 1013.1 |
| 20260901202138 | 76 | 293 | 1.0 | 9.0 | 0.00 | 0.00 | 0.00 | 72 | 1013.2 |
| 20260901200138 | 76 | 317 | 6.0 | 10.0 | 0.00 | 0.00 | 0.00 | 71 | 1013.3 |
| 20260901195139 | 76 | 217 | 5.0 | 11.0 | 0.00 | 0.00 | 0.00 | 70 | 1013.5 |
| 20260901194138 | 76 | 313 | 9.0 | 9.0 | 0.00 | 0.00 | 0.00 | 70 | 1013.5 |
| 20260901193138 | 76 | 194 | 5.0 | 9.0 | 0.00 | 0.00 | 0.00 | 71 | 1013.5 |
| 20260901192138 | 75 | 187 | 4.0 | 8.0 | 0.00 | 0.00 | 0.00 | 72 | 1013.7 |
| 20260901190139 | 74 | 198 | 3.0 | 8.0 | 0.00 | 0.00 | 0.00 | 74 | 1013.8 |
| 20260901185138 | 74 | 227 | 6.0 | 7.0 | 0.00 | 0.00 | 0.00 | 73 | 1014.0 |
| 20260901184138 | 74 | 220 | 6.0 | 9.0 | 0.00 | 0.00 | 0.00 | 73 | 1013.9 |
| 20260901183138 | 74 | 232 | 5.0 | 8.0 | 0.00 | 0.00 | 0.00 | 74 | 1013.9 |
| 20260901181138 | 74 | 244 | 5.0 | 9.0 | 0.00 | 0.00 | 0.00 | 73 | 1013.8 |
| 20260901180138 | 73 | 231 | 6.0 | 7.0 | 0.00 | 0.00 | 0.00 | 74 | 1013.7 |
| 20260901175138 | 74 | 261 | 4.0 | 11.0 | 0.00 | 0.00 | 0.00 | 74 | 1013.7 |
| 20260901173138 | 72 | 237 | 4.0 | 8.0 | 0.00 | 0.00 | 0.00 | 78 | 1013.9 |
| 20260901172137 | 72 | 265 | 4.0 | 8.0 | 0.00 | 0.00 | 0.00 | 78 | 1013.8 |
| 20260901171137 | 72 | 261 | 4.0 | 9.0 | 0.00 | 0.00 | 0.00 | 78 | 1013.7 |